Flight Track Log - Related Links

Times and Time Zones

All times are in EDT time to prevent confusion due to time zone crossing. See the JIA2328 flight status page for this flight to view local times or setup timezone preferences in your user account.


Time Position Orientation Groundspeed Altitude Reporting Facility
EDT Latitude Longitude Course Direction KTS MPH feet Rate Location/Type
Fri 06:21:37 PM 35.2283 -80.9394 106° East 156 180 1,400  Level Atlanta Center
Fri 06:22:56 PM 35.2886 -80.9192 15° North 204 235 4,100 2,425 Climbing Atlanta Center
Fri 06:24:00 PM 35.1000 -80.6470 90° East  Level FlightAware Approximate
Fri 06:24:03 PM 35.3031 -80.8425 77° East 235 270 7,300  Level Atlanta Center
Fri 06:24:25 PM 35.2981 -80.8044 99° East 229 264 7,800 1,200 Climbing Atlanta Center
Fri 06:24:58 PM 35.2947 -80.7639 96° East 247 284 8,400 1,500 Climbing Atlanta Center
Fri 06:25:00 PM 35.0702 -80.5289 109° East  Level FlightAware Approximate
Fri 06:25:25 PM 35.2936 -80.7181 92° East 247 284 9,300  Level Atlanta Center
Fri 06:26:00 PM 35.0451 -80.4091 106° East  Level FlightAware Approximate
Fri 06:26:25 PM 35.2686 -80.6403 111° Southeast 276 318 11,300  Level Atlanta Center
Fri 06:27:00 PM 35.0168 -80.2898 106° East  Level FlightAware Approximate
Fri 06:27:25 PM 35.2183 -80.5558 126° Southeast 284 327 13,300  Level Atlanta Center
Fri 06:29:48 PM 35.1056 -80.3572 125° Southeast 303 349 17,900 1,676 Climbing Washington Center
Fri 06:30:49 PM 35.0567 -80.2708 125° Southeast 308 354 19,000 541 Climbing Washington Center
Fri 06:31:50 PM 35.0019 -80.1764 125° Southeast 326 375 19,000  Level Washington Center
Fri 06:32:47 PM 34.9661 -80.0756 113° Southeast 331 381 19,000 -51 Level Washington Center
Fri 06:33:47 PM 34.9450 -79.9728 104° East 320 368 18,900 -595 Descending Washington Center
Fri 06:34:48 PM 34.9381 -79.8736 95° East 311 358 17,800 -942 Descending Washington Center
Fri 06:35:48 PM 34.9444 -79.7550 86° East 316 364 17,000 -397 Descending Washington Center
Fri 06:36:49 PM 34.9478 -79.6589 88° East 316 364 17,000  Level Washington Center
Fri 06:37:47 PM 34.9539 -79.5375 86° East 316 364 17,000  Level Washington Center
Fri 06:38:48 PM 34.9592 -79.4389 86° East 323 372 17,000  Level Washington Center
Fri 06:39:49 PM 34.9650 -79.3175 87° East 323 372 17,000  Level Washington Center
Fri 06:40:47 PM 34.9686 -79.2011 88° East 328 377 17,000  Level Washington Center
Fri 06:41:48 PM 34.9569 -79.1019 98° East 328 377 17,000  Level Washington Center
Fri 06:42:48 PM 34.9517 -78.9953 93° East 328 377 17,000  Level Washington Center
Fri 06:43:49 PM 34.9406 -78.8731 96° East 328 377 17,000 -454 Level Washington Center
Fri 06:44:47 PM 34.9328 -78.7764 96° East 328 377 16,100 -1,050 Descending Washington Center
Fri 06:45:49 PM 34.9211 -78.6672 97° East 333 383 14,900 -1,180 Descending Washington Center
Fri 06:46:49 PM 34.9133 -78.5606 95° East 322 371 13,700 -1,220 Descending Washington Center
Fri 06:47:47 PM 34.9033 -78.4564 97° East 311 358 12,500 -1,220 Descending Washington Center
Fri 06:48:47 PM 34.8933 -78.3522 97° East 311 358 11,300 -942 Descending Washington Center
Fri 06:49:48 PM 34.8869 -78.2556 95° East 306 352 10,600 -1,140 Descending Washington Center
Fri 06:50:48 PM 34.8786 -78.1642 96° East 282 325 9,000 -1,537 Descending Washington Center
Fri 06:51:49 PM 34.8700 -78.0778 97° East 271 312 7,500 -1,462 Descending Washington Center
Fri 06:52:47 PM 34.8633 -77.9917 95° East 259 298 6,100 -1,475 Descending Washington Center
Fri 06:53:47 PM 34.8419 -77.9178 109° East 248 285 4,600 -1,488 Descending Washington Center
Fri 06:54:48 PM 34.8119 -77.8486 118° Southeast 235 270 3,100 -1,082 Descending Washington Center
Fri 06:55:49 PM 34.7839 -77.7869 119° Southeast 221 254 2,400 -689 Descending Washington Center

Login

Don't have an account? Register now (free) for customized features, flight alerts, and more!